Powrót do katalogu

DELTA 1 R/B

AktywnyLEO
NORAD 13778·ROCKET BODY·🇺🇸 United States

Wystrzelony Jan 26, 1983 z Vandenberg Space Force Base

Loading…

Następne Przeloty (najbliższe 24 godziny)

TLE

ŚwieżeSource: Space-Track

Epoka: Sep 14, 2026, 14:20 UTC

1 13778U 83004B   26257.59778494  .00000070  00000-0  70696-4 0  9995
2 13778 100.0543 320.5907 0021286  40.2126 320.0610 14.09727070242323

Śledź DELTA 1 R/B w czasie rzeczywistym z AllMySat

Download on the App Store